Погода в Нове Месте на Мораве

Чехия     49°33′45″N   16°04′33″E
темп.,
°C
ветер,
м/с
пор.,
м/с
влажн.,
%
обл.,
%
осадки,
мм/ч
давл.,
гПа
погр.,
м
17 апреля, сб
сб1723:00+1сз4797100 0.0 1022525
02:00+1сз3797100 0.1 1021449
05:00+1сз3794100 0.0 1021678
08:00+1сз3697100 0.1 1021372
11:00+2сз3595100 0.3 1021349
14:00+2сз3389100 0.4 1020567
17:00+2ссз2389100 0.1 1020480
20:00+2ссз2293100 0.1 1020117
18 апреля, вс
вс1823:00+2с1294100 0.0 102156
02:00+2с2396100 0.1 1020135
05:00+2с2398100 0.0 1019199
08:00+3с2491100 0.0 1019322
11:00+5св2378100 0.1 1019847
14:00+6св2373100 0.7 1018934
17:00+7ссв2372100 0.5 1017818
20:00+5всв2286100 1.1 101836
19 апреля, пн
пн1923:00+5в1189100 0.1 101914
02:00+4с1187100 0.1 101816
05:00+4с2490100 0.0 1018102
08:00+4ссз2692100 1.1 1018641
11:00+6с5783100 0.3 1017721
14:00+8ссв6776100 0.8 1015949
17:00+6ссв4486100 0.8 1015752
20:00+5св3792100 1.2 1015365
20 апреля, вт
вт2023:00+5св3695100 0.4 1016900
02:00+5св2691100 1.2 1015495
05:00+3с279695 0.1 1015221
08:00+5ссв468989 0.1 1015537
11:00+5ссв249090 0.1 1015493
14:00+8ссв2370100 0.3 1014992
17:00+9с226398 0.6 10141048
20:00+6с238296 1.1 101538
21 апреля, ср
ср2123:00+3ссв11887 0.0 101610
02:00+3зсз118996 0.0 101610
05:00+2зсз22915 0.0 101611
08:00+6зсз238390 0.0 1016182
11:00+9зсз346987 0.1 1016720
14:00+13зсз354677 0.1 10142042
17:00+11сз455924 0.4 10141246
20:00+6сз369151 1.3 1016132